This demonstration page uses our WeatherBlox Daily Observations layout. Learn more.

39.92423, -83.80882

Hourly Observations for June 27, 2020

Temp ( °F °C ) Dew Point ( °F °C ) Humidity (%) Winds ( mph kmh ) Pressure ( in mb ) Visibility ( mi km ) Precip ( " mm )
12:56 am 00:56 Clear 77 25 68 20 74 74 SW 13 20 29.91 1013 10 16.0934 0 0
1:56 am 01:56 Clear 76 24.4 69 20.6 79 79 WSW 15 24 29.91 1013 10 16.0934 0 0
2:56 am 02:56 Cloudy 76 24.4 69 20.6 79 79 WSW 16 26 29.92 1013 10 16.0934 0 0
3:56 am 03:56 Cloudy 74 23.3 69 20.6 85 85 SW 15 24 29.9 1013 10 16.0934 0 0
4:27 am 04:27 Cloudy 73 23 70 21 89 89 WSW 13 20 29.89 1012 10 16.0934 0 0
4:56 am 04:56 Cloudy 74 23.3 70 21.1 88 88 WSW 15 24 29.9 1013 10 16.0934 0 0
5:56 am 05:56 Cloudy 73 22.8 70 21.1 90 90 WSW 14 22 29.9 1012 10 16.0934 0 0
6:35 am 06:35 Cloudy 73 23 72 22 94 94 SW 10 17 29.87 1012 10 16.0934 0 0
6:56 am 06:56 Cloudy 73 22.8 71 21.7 94 94 SW 13 20 29.88 1012 10 16.0934 0 0
7:15 am 07:15 Cloudy 73 23 72 22 94 94 WSW 9 15 29.87 1012 10 16.0934 0 0
7:25 am 07:25 Cloudy 73 23 72 22 94 94 WSW 12 19 29.87 1012 10 16.0934 0 0
7:56 am 07:56 Cloudy 73 22.8 72 22.2 96 96 WSW 10 17 29.9 1012 10 16.0934 0 0
8:56 am 08:56 Cloudy 75 23.9 71 21.7 88 88 WSW 13 20 29.9 1013 10 16.0934 0 0
9:30 am 09:30 Cloudy 75 24 72 22 89 89 SW 12 19 29.88 1012 10 16.0934 0 0
9:56 am 09:56 Cloudy 77 25 72 22.2 85 85 SW 14 22 29.9 1013 10 16.0934 0 0
10:14 am 10:14 Cloudy 75 24 72 22 89 89 SW 12 19 29.89 1012 10 16.0934 0 0
10:36 am 10:36 Cloudy with Light Rain 73 23 73 23 100 100 SW 12 19 29.89 1012 4 6.43736 0.001 0.001
10:43 am 10:43 Cloudy with Light Rain 72 22 72 22 100 100 SW 10 17 29.9 1013 4 6.43736 0.001 0.001
10:56 am 10:56 Cloudy with Light Rain 72 22.2 72 22.2 100 100 SW 9 15 29.93 1013 4 6.43736 0.001 0.001
11:06 am 11:06 Cloudy with Light Rain 72 22 72 22 100 100 SW 10 17 29.91 1013 2.5 4.02335 0.001 0.001
11:14 am 11:14 Cloudy with Light Rain 72 22 72 22 100 100 SW 12 19 29.91 1013 4 6.43736 0.01 0.254
11:56 am 11:56 Cloudy with Light Rain 72 22.2 72 22.2 100 100 SW 12 19 29.92 1013 4 6.43736 0.01 0.254
12:23 pm 12:23 Cloudy with Nearby Thunderstorms 72 22 72 22 100 100 W 16 26 29.9 1013 10 16.0934 0.04 1.016
12:38 pm 12:38 Cloudy with Light Rain 72 22 70 21 94 94 W 12 19 29.9 1013 10 16.0934 0.06 1.524
12:56 pm 12:56 Cloudy with Light Rain 71 21.7 71 21.7 100 100 WSW 12 19 29.91 1013 10 16.0934 0.06 1.524
1:17 pm 13:17 Mostly Cloudy with Light Rain 70 21 70 21 100 100 SW 12 19 29.9 1012 10 16.0934 0.001 0.001
1:56 pm 13:56 Mostly Cloudy with Light Rain 71 21.7 71 21.7 100 100 SW 8 13 29.9 1013 10 16.0934 0.01 0.254
2:56 pm 14:56 Mostly Sunny 75 23.9 70 21.1 84 84 SW 14 22 29.85 1011 10 16.0934 0.001 0.001
3:56 pm 15:56 Mostly Sunny 77 25 69 20.6 77 77 WSW 16 26 29.86 1011 10 16.0934 0 0
4:12 pm 16:12 Mostly Cloudy 77 25 70 21 79 79 WSW 16 26 29.84 1011 10 16.0934 0 0
4:56 pm 16:56 Mostly Cloudy 78 25.6 72 22.2 82 82 SW 9 15 29.86 1011 10 16.0934 0 0
5:56 pm 17:56 Cloudy 78 25.6 72 22.2 82 82 SW 10 17 29.84 1010 10 16.0934 0 0
6:56 pm 18:56 Mostly Cloudy 77 25 72 22.2 85 85 WSW 14 22 29.83 1010 10 16.0934 0 0
7:18 pm 19:18 Partly Cloudy 77 25 72 22 83 83 WSW 8 13 29.8 1009 10 16.0934 0 0
7:40 pm 19:40 Mostly Cloudy 75 24 72 22 89 89 WSW 10 17 29.81 1009 10 16.0934 0 0
7:56 pm 19:56 Mostly Cloudy 76 24.4 71 21.7 85 85 SW 8 13 29.82 1010 10 16.0934 0 0
8:15 pm 20:15 Mostly Sunny 75 24 70 21 83 83 WSW 12 19 29.81 1009 10 16.0934 0 0
8:56 pm 20:56 Sunny 74 23.3 70 21.1 88 88 WSW 6 9 29.83 1010 10 16.0934 0 0
9:56 pm 21:56 Mostly Cloudy 73 22.8 72 22.2 96 96 SW 6 9 29.84 1011 10 16.0934 0 0
10:56 pm 22:56 Cloudy 72 22.2 72 22.2 100 100 SW 8 13 29.86 1011 9 14.48406 0 0
11:18 pm 23:18 Cloudy 72 22 72 22 100 100 WSW 6 9 29.84 1011 9 14.48406 0 0
11:51 pm 23:51 Partly Cloudy 72 22 72 22 100 100 SSW 5 7 29.83 1010 8 12.87472 0 0
11:56 pm 23:56 Mostly Clear 71 21.7 71 21.7 100 100 SSW 3 6 29.85 1011 8 12.87472 0 0

Powered by AerisWeather